STARLINK-32848 (62808 NORAD) Tracking and Keplerian Element Data

This shows tracking and keplerian element data for the satellite.

Feedback or suggestion? Click here.




ElementValue
Catalog62808
NameSTARLINK-32848
Epoch Orbit286
Epoch Day34.83335648
Epoch Year2025
RAAN13.6364
Inclination53.1471
Eccentricity9.57E-05
Argument of Perigee103.4885
Mean Anonmoly196.908
Mean Motion15.86524389
Decay Rate-0.00909009
L11 62808U 25018C 25034.83335648 -.00909009 00000+0 -38973-2 0 9994
L22 62808 53.1471 13.6364 0000957 103.4885 196.9080 15.86524389 2860



Live tracking and technical data element details for STARLINK-32848 (NORAD 62808). STARLINK-32848 can be tracked NOW for your location showing map with azimuth and elevation plus other details from your city location.







IsCatalogInMostPopularTable: catalog: 62808, numindb: 3
Update: records affected: 1



GetName: 62808 STARLINK-32848

Hit Count: updated at: Sun, 09 Feb 2025 14:53:28 GMT